Weather in Novobibeyevo

Russia / Novosibirsk Oblast     55°41′43″N   83°44′57″E
temp.,
°C
wind,
m/s
gust,
m/s
humid.,
%
clouds,
%
prec.,
mm/h
press.,
hPa
HPBL,
m
25 february, thu
thu2501:00−13se1397100 4.6 1009140
04:00−18sw6148167 0.1 1011596
07:00−23sw4119133 0.1 1013342
10:00−21sw5138764 0.0 1015747
13:00−18sw6117876 0.0 10161228
16:00−19sw71286100 0.1 10171568
19:00−20sw51390100 0.2 10191436
22:00−21sw31194100 0.1 1019995
26 february, fri
fri2601:00−22sw31097100 0.1 1020682
04:00−22sw41094100 0.1 1020989
07:00−22sw51192100 0.2 1022953
10:00−23sw71293100 0.1 1024845
13:00−24wsw61091100 0.3 1027897
16:00−23wsw61088100 0.1 1029989
19:00−25wsw41092100 0.1 1032631
22:00−26sw41193100 0.0 1033564
27 february, sat
sat2701:00−26sw41093100 0.0 1034548
04:00−26sw4895100 0.0 1035439
07:00−26sw4995100 0.1 1035456
10:00−26sw4894100 0.1 1036489
13:00−24sw4792100 0.2 1036580
16:00−22sw4791100 0.1 1036608
19:00−25sw3595100 0.1 1037106
22:00−28sw239738 0.0 103850
28 february, sun
sun2801:00−30sw239819 0.0 103928
04:00−31ssw23980 0.0 103923
07:00−32ssw22970 0.0 104021
10:00−28s24940 0.0 1040131
13:00−21sse249011 0.0 1038367
16:00−17se358883 0.0 1036482
19:00−20ese379488 0.0 1034162
22:00−17se3893100 0.0 1031223
1 march, mon
mon101:00−14se41094100 0.1 1027405
04:00−11se41094100 0.6 1023596
07:00−8sse41194100 1.5 1020728
10:00−7s51094100 1.0 1016716
13:00−5s51094100 2.3 1013736
16:00−1ssw71394100 1.7 1010921
19:000sw61297100 2.3 1010799
22:000sw61391100 0.3 1010791